London-Corbin, KY

10:04 AM EST on November 20, 2019 (GMT -0500)
London-Corbin / McKee

Weather History for KLOZ - October, 2019

Change the Weather History Date:

Wednesday, October 23, 2019

  Actual Average Record
Temperature  
Mean Temperature 50 °F 55 °F  
Max Temperature 63 °F 67 °F 82 °F (1963)
Min Temperature 37 °F 43 °F 26 °F (1976)
Degree Days  
Heating Degree Days 15 10  
Month to date heating degree days 144 168  
Since 1 July heating degree days 144 215  
Cooling Degree Days 0 0  
Month to date cooling degree days 67 17  
Year to date cooling degree days 1484 1184  
Moisture  
Dew Point 35 °F    
Average Humidity 60    
Maximum Humidity 92    
Minimum Humidity 27    
Precipitation  
Precipitation 0.00 in 0.10 in 2.31 in (2007)
Month to date precipitation 5.56 2.18  
Sea Level Pressure  
Sea Level Pressure 30.16 in    
Wind  
Wind Speed 2 mph (SW)    
Max Wind Speed 10 mph    
Max Gust Speed 14 mph    
Visibility 10 miles    
Events      
T = Trace of Precipitation, MM = Missing Value Source: NWS Daily Summary

Daily Weather History Graph

Daily Weather History Graph

Search for Another Location

Airport or City:

Astronomy

Oct. 23, 2019 Rise Set
Actual Time 7:51 AM EDT 6:49 PM EDT
Civil Twilight 7:24 AM EDT 7:15 PM EDT
Nautical Twilight 6:54 AM EDT 7:46 PM EDT
Astronomical Twilight 6:24 AM EDT 8:16 PM EDT
Moon 2:19 AM EDT (10/23) 4:30 PM EDT (10/23)
Length of Visible Light 11h 50m
Length of Day
10h 57m
Waning Crescent, 27% of the Moon is Illuminated
Oct 23
Waning Crescent
Oct 27
New
Nov 4
First Quarter
Nov 12
Full
Nov 19
Last Quarter

Hourly Weather History & Observations

Time (EDT) Temp. Windchill Dew Point Humidity Pressure Visibility Wind Dir Wind Speed Gust Speed Precip Events Conditions
12:53 AM 48.9 °F - 39.0 °F 69% 30.03 in 10.0 mi WSW 4.6 mph - N/A   Clear
1:53 AM 48.0 °F - 37.9 °F 68% 30.04 in 10.0 mi WSW 4.6 mph - N/A   Clear
2:53 AM 43.0 °F - 39.0 °F 86% 30.06 in 10.0 mi Calm Calm - N/A   Clear
3:53 AM 41.0 °F - 37.9 °F 89% 30.08 in 10.0 mi Calm Calm - N/A   Clear
4:53 AM 39.9 °F - 37.9 °F 93% 30.09 in 10.0 mi Calm Calm - N/A   Clear
5:53 AM 39.0 °F - 37.0 °F 93% 30.11 in 10.0 mi Calm Calm - N/A   Clear
6:53 AM 37.9 °F - 36.0 °F 93% 30.13 in 10.0 mi Calm Calm - N/A   Clear
7:53 AM 37.0 °F 34.5 °F 36.0 °F 96% 30.14 in 10.0 mi South 3.5 mph - N/A   Clear
8:53 AM 41.0 °F - 37.9 °F 89% 30.16 in 10.0 mi Calm Calm - N/A   Clear
9:53 AM 46.0 °F 43.9 °F 39.0 °F 76% 30.19 in 10.0 mi SW 4.6 mph - N/A   Clear
10:53 AM 52.0 °F - 37.0 °F 57% 30.20 in 10.0 mi Variable 5.8 mph - N/A   Clear
11:53 AM 55.0 °F - 32.0 °F 42% 30.21 in 10.0 mi West 5.8 mph - N/A   Clear
12:53 PM 57.0 °F - 30.0 °F 36% 30.21 in 10.0 mi WNW 8.1 mph - N/A   Clear
1:53 PM 57.9 °F - 30.9 °F 36% 30.19 in 10.0 mi WSW 4.6 mph - N/A   Clear
2:53 PM 61.0 °F - 28.9 °F 30% 30.18 in 10.0 mi WNW 5.8 mph - N/A   Clear
3:53 PM 60.1 °F - 27.0 °F 28% 30.17 in 10.0 mi Calm Calm - N/A   Clear
4:53 PM 61.0 °F - 28.0 °F 29% 30.17 in 10.0 mi South 3.5 mph - N/A   Clear
5:53 PM 61.0 °F - 30.0 °F 31% 30.17 in 10.0 mi SSE 3.5 mph - N/A   Clear
6:53 PM 57.0 °F - 34.0 °F 42% 30.18 in 10.0 mi Calm Calm - N/A   Clear
7:53 PM 50.0 °F - 37.9 °F 63% 30.21 in 10.0 mi Calm Calm - N/A   Clear
8:53 PM 46.9 °F - 39.9 °F 77% 30.21 in 10.0 mi Calm Calm - N/A   Clear
9:53 PM 44.1 °F - 39.9 °F 85% 30.22 in 10.0 mi Calm Calm - N/A   Clear
10:53 PM 43.0 °F - 39.0 °F 86% 30.25 in 10.0 mi Calm Calm - N/A   Clear
11:53 PM 42.1 °F - 37.9 °F 85% 30.23 in 10.0 mi Calm Calm - N/A   Clear